Regional Weather Roundup
Issued by NWS Charleston, WV

Home | Current Version | Previous Version | Graphics & Text | Print | Product List | Glossary On
Versions: 1 2 3 4 5 6 7 8 9 10 11 12 13 14 15 16 17 18 19 20 21 22 23 24 25 26 27 28 29 30 31 32 33 34 35 36 37 38 39 40 41 42 43 44 45 46 47 48 49 50
000
ASUS41 KRLX 120610
RWRRLX
West Virginia Regional Weather Roundup
National Weather Service Charleston WV
200 AM EDT SAT JUL 12 2014

Note: "fair" indicates few or no clouds below 12,000 feet with no
significant weather and/or obstructions to visibility.

WVZ003-120700-
Northern Panhandle of West Virginia

CITY           SKY/WX    TMP DP  RH WIND       PRES   REMARKS
WHEELING       PTCLDY    66  61  84 SW3       30.21S
$$

WVZ009-120700-
Northwest West Virginia

CITY           SKY/WX    TMP DP  RH WIND       PRES   REMARKS
PARKERSBURG    MOCLDY    63  62  97 CALM      30.22S FOG
$$

WVZ006-120700-
Western West Virginia

CITY           SKY/WX    TMP DP  RH WIND       PRES   REMARKS
HUNTINGTON     PTCLDY    65  63  93 CALM      30.18F
$$

WVZ015-120700-
West Central West Virginia

CITY           SKY/WX    TMP DP  RH WIND       PRES   REMARKS
CHARLESTON     PTCLDY    66  66 100 CALM      30.19F
$$

WVZ031-120700-
North Central West Virginia

CITY           SKY/WX    TMP DP  RH WIND       PRES   REMARKS
CLARKSBURG     PTCLDY    63  60  90 CALM      30.21F
MORGANTOWN     PTCLDY    66  62  87 CALM      30.23F FOG
$$

WVZ035-042-045-120700-
South Central West Virginia

CITY           SKY/WX    TMP DP  RH WIND       PRES   REMARKS
BECKLEY        CLEAR     68  61  78 SE9       30.28F
BLUEFIELD      CLEAR     71  61  70 SW5       30.31S
LEWISBURG      CLEAR     64  61  90 CALM      30.29S
$$

WVZ047-120700-
Northern Mountains of West Virginia

CITY           SKY/WX    TMP DP  RH WIND       PRES   REMARKS
ELKINS         CLEAR     60  57  89 CALM      30.27F
$$

WVZ052-120700-
Eastern Panhandle of West Virginia

CITY           SKY/WX    TMP DP  RH WIND       PRES   REMARKS
MARTINSBURG    CLEAR     66  62  87 CALM      30.21F
PETERSBURG     PTCLDY    63  59  86 CALM      30.24F FOG
$$



USA.gov is the U.S. government's official web portal to all federal, state and local government web resources and services.